PROFILE

 METAR AND TAF INFORMATION
ADDS - METARS form results

(1211 UTC 26 March 2019)
http://aviationweather.gov/metar/data/
 
CYHM 261200Z 03008KT 15SM SKC M03/M10 A3037 RMK SLP296
TAF CYHM 261139Z 2612/2712 02006KT P6SM SKC BECMG 2612/2614 36010KT FM261500 04010KT P6SM SKC BECMG 2616/2618 08005KT FM262100 VRB03KT P6SM SKC RMK NXT FCST BY 261800Z 

 AIRPORT MAP

 RUNWAY INFORMATION
Runway 06 Runway length 6000 ft Runway width 150 ft
Runway elevation 771 ft Runway displaced threshold 0 ft Runway heading 49
Runway 24 Runway length 6000 ft Runway width 150 ft
Runway elevation 755 ft Runway displaced threshold 0 ft Runway heading 229
Runway 12 Runway length 10000 ft Runway width 200 ft
Runway elevation 776 ft Runway displaced threshold 1600 ft Runway heading 108
Runway 30 Runway length 10000 ft Runway width 200 ft
Runway elevation 767 ft Runway displaced threshold 400 ft Runway heading 288

 AIRPORT FREQUENCIES
Type A/D Name TORONTO TR Frequency 119.7 MHZ
Type ATIS Name ATIS Frequency 128.1 MHZ
Type GND Name GND Frequency 121.6 MHZ
Type TWR Name TWR Frequency 125 MHZ

 AIRPORT NEAR NAVIGATION AIDS
Type NDB Name Hamilton Frequency 221 KHZ
Type NDB Name Ancaster Frequency 397 KHZ
Type NDB Name Binbrook Frequency 266 KHZ